Simultaneous Nadir Overpasses (SNOs) Predictions

Prediction of SNOs between AQUA and GOES-15 Satellite Orbit:

Table of predicted SNOs for the next 14.0 days since TLE Epoch: 1/30/2016
Index Date Time (AQUA) AQUA Lat,Lon GOES-15 Lat,Lon Distance(km) Time Diff (sec)
1 01/30/2016 10:19:49 -0.92,-131.18 -0.08,-135.24 460.68 80
2 01/30/2016 22:41:12 -0.19,-136.37 0.08,-135.21 133.20 80
3 02/01/2016 22:29:01 0.48,-133.42 0.07,-135.24 207.03 80
4 02/02/2016 10:50:16 0.65,-138.57 -0.07,-135.29 373.67 80
5 02/04/2016 10:38:05 -0.03,-135.62 -0.07,-135.31 34.43 80
6 02/06/2016 10:25:53 -0.65,-132.66 -0.06,-135.33 304.33 80
7 02/06/2016 22:47:16 -0.50,-137.84 0.06,-135.29 290.20 80
8 02/08/2016 22:35:04 0.14,-134.88 0.06,-135.30 47.73 80
9 02/10/2016 22:22:52 0.78,-131.92 0.05,-135.30 385.08 80
10 02/11/2016 10:44:08 0.28,-137.08 -0.05,-135.35 196.27 80




NCC Satellite Simultaneous Nadir Overpasses (SNOs) Prediction Service
